Weather History for Flag Island, MN

Change the Weather History Date:

Friday, December 7, 2012

  Actual Average Record
Temperature  
Mean Temperature 12 °F -  
Max Temperature 17 °F 21 °F 33 °F (1999)
Min Temperature 6 °F 10 °F -18 °F (2013)
Degree Days  
Heating Degree Days 54    
Moisture  
Dew Point 4 °F    
Average Humidity 72    
Maximum Humidity 85    
Minimum Humidity 62    
Precipitation  
Precipitation 0.00 in - - ()
Sea Level Pressure  
Sea Level Pressure 30.03 in    
Wind  
Wind Speed 12 mph (NW)    
Max Wind Speed 21 mph    
Max Gust Speed 23 mph    
Visibility 10 miles    
Events Snow    
Averages and records for this station are not official NWS values.
T = Trace of Precipitation, MM = Missing Value Source: NWS Daily Summary

Daily Weather History Graph

Daily Weather History Graph

Search for Another Location

Airport:

Trip Planner

Search our weather history database for the weather conditions in past years. The results will help you decide how hot, cold, wet, or windy it might be!

Date:

Astronomy

Dec. 07, 2012 Rise Set
Actual Time 8:01 AM CST 4:21 PM CST
Civil Twilight 7:24 AM CST 4:58 PM CST
Nautical Twilight 6:43 AM CST 5:38 PM CST
Astronomical Twilight 6:04 AM CST 6:17 PM CST
Moon 12:51 AM CST (12/7) 12:46 PM CST (12/7)
Length of Visible Light 9h 34m
Length of Day
8h 19m
Last Quarter, 38% of the Moon is Illuminated
Dec 7
Last Quarter
Dec 13
New
Dec 19
First Quarter
Dec 28
Full
Jan 4
Last Quarter

Hourly Weather History & Observations

Time (CST) Temp. Windchill Dew Point Humidity Pressure Visibility Wind Dir Wind Speed Gust Speed Precip Events Conditions
12:13 AM 17.6 °F 3.7 °F 10.4 °F 73% 29.92 in 10.0 mi WNW 13.8 mph 19.6 mph N/A   Overcast
12:33 AM 17.6 °F 3.2 °F 8.6 °F 68% 29.93 in 10.0 mi WNW 15.0 mph - N/A   Overcast
12:54 AM 17.6 °F 3.2 °F 8.6 °F 68% 29.93 in 10.0 mi WNW 15.0 mph - N/A   Overcast
1:13 AM 17.6 °F 3.7 °F 8.6 °F 68% 29.94 in 10.0 mi West 13.8 mph 17.3 mph N/A   Overcast
1:34 AM 15.8 °F 2.7 °F 10.4 °F 79% 29.95 in 7.0 mi WNW 11.5 mph - N/A Snow Light Snow
1:53 AM 15.8 °F 0.3 °F 10.4 °F 79% 29.95 in 4.0 mi NW 16.1 mph 20.7 mph N/A Snow Light Snow
2:13 AM 15.8 °F -1.5 °F 8.6 °F 73% 29.95 in 10.0 mi NW 20.7 mph - N/A   Overcast
2:34 AM 15.8 °F -1.1 °F 6.8 °F 68% 29.96 in 10.0 mi NW 19.6 mph - N/A   Overcast
2:53 AM 14.0 °F -3.4 °F 6.8 °F 73% 29.96 in 10.0 mi NW 19.6 mph - N/A   Overcast
3:13 AM 14.0 °F -2.5 °F 5.0 °F 67% 29.97 in 10.0 mi WNW 17.3 mph - N/A   Overcast
3:34 AM 14.0 °F -1.4 °F 5.0 °F 67% 29.97 in 10.0 mi WNW 15.0 mph 23.0 mph N/A   Overcast
3:53 AM 12.2 °F -3.1 °F 5.0 °F 73% 29.96 in 10.0 mi NW 13.8 mph - N/A   Overcast
4:13 AM 12.2 °F -2.5 °F 5.0 °F 73% 29.96 in 10.0 mi NNW 12.7 mph - N/A   Scattered Clouds
4:34 AM 12.2 °F -1.0 °F 3.2 °F 67% 29.97 in 10.0 mi NW 10.4 mph - N/A   Clear
4:53 AM 12.2 °F 0.7 °F 5.0 °F 73% 29.97 in 10.0 mi WNW 8.1 mph - N/A   Clear
5:13 AM 12.2 °F 2.9 °F 5.0 °F 73% 29.98 in 10.0 mi West 5.8 mph - N/A   Clear
5:34 AM 12.2 °F 4.3 °F 5.0 °F 73% 29.98 in 10.0 mi WNW 4.6 mph - N/A   Clear
5:53 AM 12.2 °F 1.7 °F 5.0 °F 73% 29.99 in 10.0 mi West 6.9 mph - N/A   Mostly Cloudy
6:13 AM 12.2 °F 0.7 °F 5.0 °F 73% 29.99 in 10.0 mi West 8.1 mph - N/A   Overcast
6:34 AM 10.4 °F -0.4 °F 5.0 °F 79% 29.99 in 10.0 mi West 6.9 mph - N/A   Scattered Clouds
6:53 AM 10.4 °F -1.5 °F 5.0 °F 79% 30.00 in 10.0 mi West 8.1 mph - N/A   Scattered Clouds
7:13 AM 10.4 °F -2.4 °F 5.0 °F 79% 30.01 in 10.0 mi West 9.2 mph - N/A   Mostly Cloudy
7:34 AM 10.4 °F -3.3 °F 6.8 °F 85% 30.01 in 10.0 mi WNW 10.4 mph - N/A   Overcast
7:53 AM 10.4 °F -5.4 °F 6.8 °F 85% 30.01 in 10.0 mi NW 13.8 mph - N/A   Overcast
8:13 AM 10.4 °F -5.4 °F 6.8 °F 85% 30.02 in 10.0 mi NW 13.8 mph - N/A   Overcast
8:34 AM 10.4 °F -5.4 °F 5.0 °F 79% 30.03 in 10.0 mi NW 13.8 mph - N/A   Overcast
8:53 AM 10.4 °F -6.6 °F 3.2 °F 73% 30.04 in 10.0 mi WNW 16.1 mph - N/A   Overcast
9:13 AM 10.4 °F -7.7 °F 3.2 °F 73% 30.05 in 10.0 mi NW 18.4 mph - N/A   Overcast
9:34 AM 10.4 °F -6.0 °F 3.2 °F 73% 30.06 in 10.0 mi NNW 15.0 mph - N/A   Overcast
9:53 AM 10.4 °F -5.4 °F 3.2 °F 73% 30.06 in 7.0 mi WNW 13.8 mph - N/A   Overcast
10:13 AM 8.6 °F -7.7 °F 1.4 °F 73% 30.07 in 10.0 mi NW 13.8 mph - N/A   Mostly Cloudy
10:34 AM 10.4 °F -4.1 °F 1.4 °F 67% 30.08 in 10.0 mi NW 11.5 mph 19.6 mph N/A   Mostly Cloudy
10:53 AM 10.4 °F -4.1 °F 1.4 °F 67% 30.08 in 10.0 mi NW 11.5 mph - N/A   Mostly Cloudy
11:13 AM 10.4 °F -2.4 °F 1.4 °F 67% 30.08 in 10.0 mi NW 9.2 mph - N/A   Scattered Clouds
11:34 AM 10.4 °F -1.5 °F 1.4 °F 67% 30.08 in 10.0 mi NW 8.1 mph - N/A   Clear
11:54 AM 10.4 °F -0.4 °F 1.4 °F 67% 30.07 in 10.0 mi WNW 6.9 mph - N/A   Scattered Clouds
12:13 PM 10.4 °F -4.1 °F 1.4 °F 67% 30.07 in 10.0 mi WNW 11.5 mph - N/A   Clear
12:34 PM 12.2 °F -1.0 °F 1.4 °F 62% 30.06 in 10.0 mi WNW 10.4 mph - N/A   Clear
12:53 PM 12.2 °F -0.2 °F 1.4 °F 62% 30.05 in 10.0 mi NW 9.2 mph - N/A   Clear
1:14 PM 12.2 °F -0.2 °F 1.4 °F 62% 30.05 in 10.0 mi NNW 9.2 mph - N/A   Clear
1:33 PM 12.2 °F -2.5 °F 1.4 °F 62% 30.04 in 10.0 mi NNW 12.7 mph - N/A   Clear
1:54 PM 12.2 °F -2.5 °F 1.4 °F 62% 30.04 in 10.0 mi NNW 12.7 mph - N/A   Clear
2:13 PM 12.2 °F -0.2 °F 1.4 °F 62% 30.04 in 10.0 mi NNW 9.2 mph - N/A   Clear
2:34 PM 12.2 °F -1.8 °F 1.4 °F 62% 30.05 in 10.0 mi NNW 11.5 mph - N/A   Clear
2:53 PM 12.2 °F 2.9 °F 1.4 °F 62% 30.05 in 10.0 mi NW 5.8 mph - N/A   Clear
3:07 PM 12.2 °F 0.7 °F 1.4 °F 62% 30.06 in 10.0 mi NW 8.1 mph - N/A   Clear
3:39 PM 12.2 °F 1.7 °F 3.2 °F 67% 30.07 in 10.0 mi WNW 6.9 mph - N/A   Clear
3:54 PM 12.2 °F 4.3 °F 3.2 °F 67% 30.07 in 10.0 mi NW 4.6 mph - N/A   Clear
4:13 PM 12.2 °F 2.9 °F 1.4 °F 62% 30.07 in 10.0 mi NW 5.8 mph - N/A   Clear
4:25 PM 12.2 °F 1.7 °F 3.2 °F 67% 30.07 in 10.0 mi NNW 6.9 mph - N/A   Clear
4:54 PM 12.2 °F 0.7 °F 1.4 °F 62% 30.07 in 10.0 mi NNW 8.1 mph - N/A   Clear
5:13 PM 12.2 °F 0.7 °F 3.2 °F 67% 30.07 in 10.0 mi NW 8.1 mph - N/A   Clear
5:33 PM 12.2 °F -0.2 °F 3.2 °F 67% 30.07 in 10.0 mi NNW 9.2 mph - N/A   Clear
5:54 PM 12.2 °F -0.2 °F 3.2 °F 67% 30.08 in 10.0 mi NNW 9.2 mph - N/A   Clear
6:13 PM 10.4 °F -2.4 °F 3.2 °F 73% 30.08 in 10.0 mi NNW 9.2 mph - N/A   Clear
6:33 PM 10.4 °F -3.3 °F 3.2 °F 73% 30.08 in 10.0 mi NW 10.4 mph - N/A   Clear
6:54 PM 10.4 °F -0.4 °F 3.2 °F 73% 30.09 in 10.0 mi WNW 6.9 mph - N/A   Clear
7:13 PM 10.4 °F 0.8 °F 3.2 °F 73% 30.09 in 10.0 mi WNW 5.8 mph - N/A   Clear
7:33 PM 8.6 °F -2.6 °F 3.2 °F 79% 30.09 in 10.0 mi WNW 6.9 mph - N/A   Clear
7:54 PM 8.6 °F -2.6 °F 3.2 °F 79% 30.09 in 10.0 mi NW 6.9 mph - N/A   Clear
8:13 PM 8.6 °F -3.7 °F 3.2 °F 79% 30.09 in 10.0 mi NNW 8.1 mph - N/A   Clear
8:33 PM 8.6 °F -4.7 °F 3.2 °F 79% 30.08 in 10.0 mi NNW 9.2 mph - N/A   Clear
9:13 PM 8.6 °F -4.7 °F 3.2 °F 79% 30.09 in 10.0 mi NNW 9.2 mph - N/A   Clear
9:33 PM 8.6 °F -1.3 °F 3.2 °F 79% 30.09 in 10.0 mi North 5.8 mph - N/A   Clear
9:54 PM 8.6 °F -3.7 °F 3.2 °F 79% 30.08 in 10.0 mi NNW 8.1 mph - N/A   Clear
10:13 PM 8.6 °F -2.6 °F 3.2 °F 79% 30.08 in 10.0 mi North 6.9 mph - N/A   Clear
10:33 PM 6.8 °F -5.9 °F 3.2 °F 85% 30.08 in 10.0 mi North 8.1 mph - N/A   Clear
10:53 PM 6.8 °F -6.9 °F 1.4 °F 79% 30.07 in 10.0 mi North 9.2 mph - N/A   Clear
11:14 PM 6.8 °F -5.9 °F 1.4 °F 79% 30.08 in 10.0 mi North 8.1 mph - N/A   Clear
11:33 PM 6.8 °F -5.9 °F 1.4 °F 79% 30.08 in 10.0 mi North 8.1 mph - N/A   Clear
11:54 PM 6.8 °F -3.5 °F 1.4 °F 79% 30.08 in 10.0 mi NNE 5.8 mph - N/A   Clear